This is the latest recevied weather packets stored in our database for station/object IW7DVM-13. If no packets are shown the sender has not sent any weather packets the latest 10 day(s).
| Time | Temp. | Humidity | Pressure | Rain* | Wind** | Luminosity | Snow |
|---|---|---|---|---|---|---|---|
| 1777489503 | 17.22° C | 71% | 1009.4 hPa | 0 mm | - | - | - |
| 1777489203 | 17.78° C | 70% | 1009.4 hPa | 0 mm | - | - | - |
| 1777488903 | 17.22° C | 70% | 1009.4 hPa | 0 mm | - | - | - |
| 1777488603 | 17.22° C | 70% | 1009.4 hPa | 0 mm | - | - | - |
| 1777488303 | 17.22° C | 70% | 1009.3 hPa | 0 mm | - | - | - |
| 1777488003 | 17.22° C | 70% | 1009.3 hPa | 0 mm | - | - | - |
| 1777487703 | 17.78° C | 70% | 1009.2 hPa | 0 mm | - | - | - |
| 1777487403 | 17.78° C | 70% | 1009.3 hPa | 0 mm | - | - | - |
| 1777487103 | 17.78° C | 70% | 1009.3 hPa | 0 mm | - | - | - |
| 1777486803 | 17.78° C | 69% | 1009.2 hPa | 0 mm | - | - | - |
| 1777486503 | 17.78° C | 70% | 1009.3 hPa | 0 mm | - | - | - |
| 1777486203 | 17.78° C | 69% | 1009.2 hPa | 0 mm | - | - | - |
| 1777485903 | 18.33° C | 69% | 1009.1 hPa | 0 mm | - | - | - |
| 1777485303 | 18.33° C | 68% | 1009.1 hPa | 0 mm | - | - | - |
| 1777485003 | 18.33° C | 68% | 1009.1 hPa | 0 mm | - | - | - |
| 1777484703 | 18.89° C | 68% | 1009.1 hPa | 0 mm | - | - | - |
| 1777484403 | 18.89° C | 68% | 1009 hPa | 0 mm | - | - | - |
| 1777484106 | 18.89° C | 67% | 1009 hPa | 0 mm | - | - | - |
| 1777483803 | 19.44° C | 67% | 1009.1 hPa | 0 mm | - | - | - |
| 1777483503 | 19.44° C | 67% | 1008.9 hPa | 0 mm | - | - | - |
| 1777483203 | 19.44° C | 67% | 1008.9 hPa | 0 mm | - | - | - |
| 1777482903 | 19.44° C | 67% | 1008.9 hPa | 0 mm | - | - | - |
| 1777482603 | 19.44° C | 67% | 1008.9 hPa | 0 mm | - | - | - |
| 1777482303 | 19.44° C | 67% | 1009 hPa | 0 mm | - | - | - |
| 1777482003 | 20° C | 67% | 1009.1 hPa | 0 mm | - | - | - |
* Rain latest hour (hover to see other rain measurements)
** Current wind speed in m/s (hover to see current wind gust speed)